Change the Weather History Date:

Thursday, March 7, 2013

  Actual Average (KTHV) Record (KTHV)
Temperature  
Mean Temperature 40 °F -  
Max Temperature 46 °F 0 °F 73 °F (2009)
Min Temperature 33 °F - -4 °F (2007)
Degree Days  
Heating Degree Days 26    
Moisture  
Dew Point 25 °F    
Average Humidity 60    
Maximum Humidity 81    
Minimum Humidity 37    
Precipitation  
Precipitation 0.00 in - - ()
Sea Level Pressure  
Sea Level Pressure 30.07 in    
Wind  
Wind Speed 6 mph (NNW)    
Max Wind Speed 15 mph    
Max Gust Speed 25 mph    
Visibility 10 miles    
Events      
Averages and records for this station are not official NWS values.
T = Trace of Precipitation, MM = Missing Value Source: NWS Daily Summary

Daily Weather History Graph

Daily Weather History Graph

Search for Another Location

Airport or City:

Trip Planner

Search our weather history database for the weather conditions in past years. The results will help you decide how hot, cold, wet, or windy it might be!

Date:

Astronomy

Mar. 07, 2013 Rise Set
Actual Time 6:31 AM EST 6:06 PM EST
Civil Twilight 6:04 AM EST 6:33 PM EST
Nautical Twilight 5:33 AM EST 7:04 PM EST
Astronomical Twilight 5:02 AM EST 7:36 PM EST
Moon 3:28 AM EST (3/7) 1:53 PM EST (3/7)
Length of Visible Light 12h 29m
Length of Day
11h 35m
Waning Crescent, 20% of the Moon is Illuminated
Mar 7
Waning Crescent
Mar 11
New
Mar 19
First Quarter
Mar 27
Full
Apr 3
Last Quarter

Hourly Weather History & Observations

Time (EST) Temp. Windchill Dew Point Humidity Pressure Visibility Wind Dir Wind Speed Gust Speed Precip Events Conditions
12:05 AM 37.4 °F - 30.2 °F 75% 29.99 in 10.0 mi Calm Calm - N/A   Mostly Cloudy
12:25 AM 35.6 °F - 30.2 °F 81% 29.99 in 10.0 mi Calm Calm - N/A   Overcast
1:05 AM 35.6 °F - 30.2 °F 81% 30.00 in 10.0 mi Calm Calm - N/A   Mostly Cloudy
1:25 AM 35.6 °F 29.9 °F 30.2 °F 81% 30.00 in 10.0 mi North 6.9 mph - N/A   Scattered Clouds
1:45 AM 35.6 °F 29.9 °F 28.4 °F 75% 30.00 in 10.0 mi NNW 6.9 mph - N/A   Scattered Clouds
2:05 AM 35.6 °F 29.9 °F 30.2 °F 81% 30.00 in 10.0 mi NNW 6.9 mph - N/A   Scattered Clouds
2:25 AM 33.8 °F 27.0 °F 28.4 °F 81% 30.00 in 10.0 mi NNW 8.1 mph - N/A   Scattered Clouds
2:45 AM 33.8 °F 26.4 °F 28.4 °F 81% 30.00 in 10.0 mi NNW 9.2 mph 16.1 mph N/A   Clear
3:05 AM 33.8 °F 27.7 °F 28.4 °F 81% 30.00 in 10.0 mi NNW 6.9 mph - N/A   Scattered Clouds
3:25 AM 33.8 °F 27.7 °F 28.4 °F 81% 30.01 in 10.0 mi NNW 6.9 mph - N/A   Scattered Clouds
4:05 AM 33.8 °F 27.0 °F 28.4 °F 81% 30.02 in 10.0 mi North 8.1 mph - N/A   Overcast
4:25 AM 35.6 °F 29.9 °F 28.4 °F 75% 30.02 in 10.0 mi North 6.9 mph - N/A   Overcast
4:45 AM 35.6 °F 28.6 °F 28.4 °F 75% 30.02 in 10.0 mi North 9.2 mph - N/A   Overcast
5:05 AM 35.6 °F 29.9 °F 28.4 °F 75% 30.02 in 10.0 mi North 6.9 mph - N/A   Overcast
5:25 AM 35.6 °F 28.6 °F 26.6 °F 70% 30.03 in 10.0 mi North 9.2 mph 16.1 mph N/A   Overcast
5:45 AM 35.6 °F 29.2 °F 26.6 °F 70% 30.03 in 10.0 mi North 8.1 mph - N/A   Overcast
6:05 AM 35.6 °F 29.9 °F 26.6 °F 70% 30.03 in 10.0 mi NNW 6.9 mph - N/A   Overcast
6:25 AM 35.6 °F 27.5 °F 24.8 °F 65% 30.03 in 10.0 mi North 11.5 mph 17.3 mph N/A   Overcast
6:45 AM 35.6 °F 31.7 °F 24.8 °F 65% 30.04 in 10.0 mi NNW 4.6 mph - N/A   Overcast
7:05 AM 35.6 °F - 24.8 °F 65% 30.05 in 10.0 mi Calm Calm - N/A   Overcast
7:25 AM 35.6 °F 29.2 °F 24.8 °F 65% 30.05 in 10.0 mi NNW 8.1 mph - N/A   Overcast
7:45 AM 35.6 °F - 26.6 °F 70% 30.06 in 10.0 mi Calm Calm - N/A   Overcast
8:05 AM 35.6 °F 29.2 °F 24.8 °F 65% 30.07 in 10.0 mi NNW 8.1 mph - N/A   Overcast
8:25 AM 35.6 °F 29.2 °F 24.8 °F 65% 30.07 in 10.0 mi NNW 8.1 mph 17.3 mph N/A   Mostly Cloudy
8:45 AM 37.4 °F 30.3 °F 24.8 °F 60% 30.08 in 10.0 mi North 10.4 mph 17.3 mph N/A   Scattered Clouds
9:05 AM 37.4 °F 30.3 °F 24.8 °F 60% 30.09 in 10.0 mi NNW 10.4 mph 18.4 mph N/A   Mostly Cloudy
9:25 AM 37.4 °F 28.9 °F 24.8 °F 60% 30.09 in 10.0 mi North 13.8 mph 19.6 mph N/A   Scattered Clouds
9:45 AM 37.4 °F 28.5 °F 24.8 °F 60% 30.10 in 10.0 mi North 15.0 mph 23.0 mph N/A   Scattered Clouds
10:05 AM 37.4 °F 28.9 °F 24.8 °F 60% 30.09 in 10.0 mi North 13.8 mph 20.7 mph N/A   Scattered Clouds
10:25 AM 39.2 °F 31.6 °F 24.8 °F 56% 30.10 in 10.0 mi NNW 12.7 mph 19.6 mph N/A   Scattered Clouds
10:45 AM 39.2 °F 32.5 °F 24.8 °F 56% 30.10 in 10.0 mi North 10.4 mph 19.6 mph N/A   Clear
11:05 AM 39.2 °F 31.2 °F 24.8 °F 56% 30.10 in 10.0 mi North 13.8 mph 20.7 mph N/A   Clear
11:25 AM 39.2 °F 32.0 °F 24.8 °F 56% 30.10 in 10.0 mi NNW 11.5 mph 18.4 mph N/A   Clear
11:45 AM 41.0 °F 34.7 °F 26.6 °F 57% 30.10 in 10.0 mi North 10.4 mph 20.7 mph N/A   Scattered Clouds
12:05 PM 42.8 °F 35.8 °F 24.8 °F 49% 30.10 in 10.0 mi North 13.8 mph 21.9 mph N/A   Scattered Clouds
12:25 PM 42.8 °F 35.8 °F 26.6 °F 53% 30.10 in 10.0 mi North 13.8 mph 19.6 mph N/A   Scattered Clouds
12:45 PM 42.8 °F 36.6 °F 24.8 °F 49% 30.09 in 10.0 mi NNW 11.5 mph 19.6 mph N/A   Scattered Clouds
1:05 PM 42.8 °F 35.8 °F 24.8 °F 49% 30.08 in 10.0 mi North 13.8 mph 24.2 mph N/A   Scattered Clouds
1:25 PM 44.6 °F 38.8 °F 24.8 °F 46% 30.08 in 10.0 mi NNW 11.5 mph 18.4 mph N/A   Scattered Clouds
1:45 PM 44.6 °F 40.7 °F 24.8 °F 46% 30.08 in 10.0 mi NW 6.9 mph 19.6 mph N/A   Mostly Cloudy
2:05 PM 44.6 °F 38.1 °F 24.8 °F 46% 30.08 in 10.0 mi North 13.8 mph 18.4 mph N/A   Overcast
2:25 PM 44.6 °F 39.7 °F 23.0 °F 43% 30.07 in 10.0 mi NNW 9.2 mph 20.7 mph N/A   Overcast
2:45 PM 44.6 °F 38.8 °F 23.0 °F 43% 30.08 in 10.0 mi NNW 11.5 mph 21.9 mph N/A   Mostly Cloudy
3:10 PM 44.6 °F 39.2 °F 21.2 °F 39% 30.08 in 10.0 mi NNW 10.4 mph 19.6 mph N/A   Mostly Cloudy
3:30 PM 46.4 °F 41.1 °F 21.2 °F 37% 30.08 in 10.0 mi NNW 11.5 mph 19.6 mph N/A   Mostly Cloudy
3:50 PM 44.6 °F 39.7 °F 21.2 °F 39% 30.08 in 10.0 mi NNW 9.2 mph 20.7 mph N/A   Mostly Cloudy
4:10 PM 44.6 °F 38.1 °F 21.2 °F 39% 30.08 in 10.0 mi NNW 13.8 mph 25.3 mph N/A   Clear
4:30 PM 46.4 °F 41.1 °F 21.2 °F 37% 30.07 in 10.0 mi NNW 11.5 mph 19.6 mph N/A   Scattered Clouds
5:10 PM 44.6 °F 38.8 °F 19.4 °F 37% 30.08 in 10.0 mi North 11.5 mph 19.6 mph N/A   Overcast
5:30 PM 44.6 °F - 19.4 °F 37% 30.09 in 10.0 mi Calm Calm - N/A   Mostly Cloudy
5:50 PM 42.8 °F - 21.2 °F 42% 30.09 in 10.0 mi Calm Calm - N/A   Mostly Cloudy
6:10 PM 42.8 °F 38.6 °F 21.2 °F 42% 30.10 in 10.0 mi NNW 6.9 mph - N/A   Overcast
6:30 PM 42.8 °F 37.5 °F 24.8 °F 49% 30.11 in 10.0 mi NW 9.2 mph 16.1 mph N/A   Scattered Clouds
6:50 PM 41.0 °F 36.4 °F 24.8 °F 53% 30.12 in 10.0 mi NW 6.9 mph - N/A   Scattered Clouds
8:50 PM 39.2 °F - 26.6 °F 61% 30.13 in 10.0 mi Calm Calm - N/A   Mostly Cloudy
9:10 PM 37.4 °F - 24.8 °F 60% 30.13 in 10.0 mi Calm Calm - N/A   Mostly Cloudy
9:30 PM 37.4 °F - 24.8 °F 60% 30.13 in 10.0 mi Calm Calm - N/A   Mostly Cloudy
9:50 PM 39.2 °F 37.0 °F 24.8 °F 56% 30.14 in 10.0 mi NNW 3.5 mph - N/A   Mostly Cloudy
10:10 PM 37.4 °F - 24.8 °F 60% 30.13 in 10.0 mi Calm Calm - N/A   Overcast
10:30 PM 37.4 °F - 24.8 °F 60% 30.13 in 10.0 mi Calm Calm - N/A   Overcast
10:50 PM 37.4 °F - 24.8 °F 60% 30.13 in 10.0 mi Calm Calm - N/A   Mostly Cloudy
11:10 PM 37.4 °F - 24.8 °F 60% 30.13 in 10.0 mi Calm Calm - N/A   Overcast
11:30 PM 37.4 °F - 26.6 °F 65% 30.13 in 10.0 mi Calm Calm - N/A   Mostly Cloudy
11:50 PM 37.4 °F - 26.6 °F 65% 30.13 in 10.0 mi Calm Calm - N/A   Scattered Clouds